Weather History for Fort Myers Airport, FL

Change the Weather History Date:

Sunday, January 6, 2013

  Actual Average Record
Temperature  
Mean Temperature 72 °F -  
Max Temperature 81 °F 76 °F 86 °F (1982)
Min Temperature 64 °F 55 °F 33 °F (1999)
Cooling Degree Days 8    
Growing Degree Days 22 (Base 50)    
Moisture  
Dew Point 66 °F    
Average Humidity 90    
Maximum Humidity 100    
Minimum Humidity 62    
Precipitation  
Precipitation 0.00 in - - ()
Sea Level Pressure  
Sea Level Pressure 30.13 in    
Wind  
Wind Speed 5 mph (ENE)    
Max Wind Speed 8 mph    
Max Gust Speed 17 mph    
Visibility 6 miles    
Events Fog    
Averages and records for this station are not official NWS values.
T = Trace of Precipitation, MM = Missing Value Source: NWS Daily Summary

Daily Weather History Graph

Daily Weather History Graph

Search for Another Location

Airport:

Trip Planner

Search our weather history database for the weather conditions in past years. The results will help you decide how hot, cold, wet, or windy it might be!

Date:

Astronomy

Jan. 06, 2013 Rise Set
Actual Time 7:16 AM EST 5:49 PM EST
Civil Twilight 6:51 AM EST 6:14 PM EST
Nautical Twilight 6:22 AM EST 6:43 PM EST
Astronomical Twilight 5:54 AM EST 7:11 PM EST
Moon 1:41 AM EST (1/6) 1:06 PM EST (1/6)
Length of Visible Light 11h 23m
Length of Day
10h 33m
Waning Crescent, 33% of the Moon is Illuminated
Jan 6
Waning Crescent
Jan 11
New
Jan 18
First Quarter
Jan 26
Full
Feb 3
Last Quarter

Hourly Weather History & Observations

Time (EST) Temp. Heat Index Dew Point Humidity Pressure Visibility Wind Dir Wind Speed Gust Speed Precip Events Conditions
12:51 AM 64.4 °F - 64.4 °F 100% 30.18 in 5.0 mi NNE 3.5 mph - N/A   Partly Cloudy
12:53 AM 64.4 °F - 64.4 °F 100% 30.18 in 5.0 mi NNE 4.6 mph - N/A   Scattered Clouds
12:59 AM 64.4 °F - 64.4 °F 100% 30.18 in 2.5 mi NE 5.8 mph - N/A   Mostly Cloudy
1:04 AM 64.4 °F - 64.4 °F 100% 30.18 in 0.8 mi NE 5.8 mph - N/A   Mist
1:16 AM 64.4 °F - 64.4 °F 100% 30.18 in 0.2 mi ENE 6.9 mph - N/A Fog Fog
1:53 AM 64.9 °F - 64.0 °F 97% 30.16 in 0.2 mi ENE 6.9 mph - N/A Fog Fog
2:18 AM 66.2 °F - 64.4 °F 94% 30.16 in 0.5 mi East 6.9 mph - N/A Fog Fog
2:53 AM 64.9 °F - 64.9 °F 100% 30.14 in 0.5 mi ENE 5.8 mph - N/A Fog Fog
3:53 AM 64.9 °F - 64.0 °F 97% 30.14 in 1.0 mi ENE 6.9 mph - N/A   Overcast
4:13 AM 64.4 °F - 64.4 °F 100% 30.14 in 0.8 mi ENE 6.9 mph - N/A   Overcast
4:53 AM 64.4 °F - 64.4 °F 100% 30.13 in 0.5 mi ENE 6.9 mph - N/A Fog Fog
5:53 AM 64.0 °F - 64.0 °F 100% 30.13 in 0.5 mi East 4.6 mph - N/A Fog Fog
6:40 AM 64.4 °F - 64.4 °F 100% 30.14 in 0.2 mi NE 4.6 mph - N/A Fog Fog
6:53 AM 64.4 °F - 64.4 °F 100% 30.15 in 0.2 mi ENE 4.6 mph - N/A Fog Fog
7:53 AM 64.0 °F - 63.0 °F 96% 30.15 in 0.2 mi ENE 6.9 mph - N/A Fog Fog
8:34 AM 64.4 °F - 64.4 °F 100% 30.17 in 0.5 mi East 5.8 mph - N/A Fog Fog
8:53 AM 64.9 °F - 64.9 °F 100% 30.17 in 0.5 mi East 5.8 mph - N/A Fog Fog
9:32 AM 66.2 °F - 66.2 °F 100% 30.17 in 1.0 mi ESE 5.8 mph - N/A   Overcast
9:53 AM 66.9 °F - 66.9 °F 100% 30.16 in 2.5 mi East 4.6 mph - N/A   Overcast
10:00 AM 68.0 °F - 68.0 °F 100% 30.17 in 6.0 mi ESE 4.6 mph - N/A   Overcast
10:38 AM 71.6 °F - 66.2 °F 83% 30.16 in 10.0 mi East 5.8 mph - N/A   Scattered Clouds
10:53 AM 73.0 °F - 66.9 °F 81% 30.15 in 10.0 mi East 5.8 mph - N/A   Partly Cloudy
11:53 AM 78.1 °F - 69.1 °F 74% 30.13 in 10.0 mi SSE 5.8 mph - N/A   Scattered Clouds
12:53 PM 80.1 °F 82.3 °F 66.9 °F 64% 30.09 in 10.0 mi Variable 5.8 mph - N/A   Scattered Clouds
1:53 PM 80.1 °F 82.3 °F 66.9 °F 64% 30.06 in 10.0 mi South 5.8 mph - N/A   Scattered Clouds
2:53 PM 81.0 °F 83.3 °F 66.9 °F 62% 30.06 in 10.0 mi SW 8.1 mph 17.3 mph N/A   Scattered Clouds
3:53 PM 80.1 °F 82.1 °F 66.0 °F 62% 30.05 in 10.0 mi WSW 8.1 mph - N/A   Scattered Clouds
4:53 PM 78.1 °F - 66.0 °F 66% 30.06 in 10.0 mi WSW 8.1 mph - N/A   Scattered Clouds
5:53 PM 75.9 °F - 66.9 °F 74% 30.08 in 10.0 mi West 4.6 mph - N/A   Mostly Cloudy
6:53 PM 73.0 °F - 68.0 °F 84% 30.09 in 10.0 mi WSW 4.6 mph - N/A   Mostly Cloudy
7:53 PM 73.0 °F - 68.0 °F 84% 30.10 in 10.0 mi WNW 3.5 mph - N/A   Mostly Cloudy
8:53 PM 72.0 °F - 68.0 °F 87% 30.11 in 10.0 mi Calm Calm - N/A   Clear
9:53 PM 71.1 °F - 68.0 °F 90% 30.12 in 10.0 mi Calm Calm - N/A   Partly Cloudy
10:41 PM 69.8 °F - 68.0 °F 94% 30.13 in 10.0 mi Calm Calm - N/A   Overcast
10:50 PM 69.8 °F - 68.0 °F 94% 30.13 in 10.0 mi Calm Calm - N/A   Overcast
10:53 PM 70.0 °F - 68.0 °F 93% 30.12 in 10.0 mi Calm Calm - N/A   Overcast
11:30 PM 71.6 °F - 68.0 °F 88% 30.12 in 10.0 mi North 3.5 mph - N/A   Overcast
11:53 PM 71.1 °F - 68.0 °F 90% 30.12 in 10.0 mi NNE 3.5 mph - N/A   Overcast